GW4935 Weather Reports


time (UTC)temp
F
wind
direction
speed
knots
gust
knots
rain 1hr
in
rain 24hr
in
rain mn
in
humidity
%
barometer
mb
20260906122042 75 288 1.7 3.5 0.00 0.00 0.00 85 1013.1
20260906121609 75 295 0.9 2.6 0.00 0.00 0.00 85 1012.9
20260906121042 74 278 1.7 2.6 0.00 0.00 0.00 86 1012.7
20260906120545 74 314 0.0 2.6 0.00 0.00 0.00 86 1012.5
20260906120113 74 0 0.0 2.6 0.00 0.00 0.00 86 1012.5
20260906115542 74 0 0.9 1.7 0.00 0.00 0.00 86 1012.5
20260906115042 74 0 0.0 0.0 0.00 0.00 0.00 86 1012.5
20260906114607 73 0 0.0 0.0 0.00 0.00 0.00 87 1012.4
20260906114043 73 0 0.0 0.0 0.00 0.00 0.00 88 1012.3
20260906113542 73 0 0.0 0.0 0.00 0.00 0.00 90 1012.4
20260906113109 72 0 0.0 0.0 0.00 0.00 0.00 90 1012.3
20260906112542 72 0 0.0 0.0 0.00 0.00 0.00 90 1012.4
20260906112043 72 0 0.0 0.0 0.00 0.00 0.00 89 1012.3
20260906111602 72 0 0.0 0.0 0.00 0.00 0.00 89 1012.1
20260906111043 73 0 0.0 0.0 0.00 0.00 0.00 88 1012.1
20260906110543 73 0 0.0 0.0 0.00 0.00 0.00 88 1012.0
20260906110059 73 0 0.0 0.0 0.00 0.00 0.00 88 1011.9
20260906105543 73 0 0.0 0.0 0.00 0.00 0.00 89 1012.0
20260906105042 73 0 0.0 0.0 0.00 0.00 0.00 89 1012.0
20260906104607 72 0 0.0 0.0 0.00 0.00 0.00 89 1011.9
20260906104044 72 0 0.0 0.0 0.00 0.00 0.00 89 1011.8
20260906103542 72 0 0.0 0.0 0.00 0.00 0.00 88 1011.7
20260906103102 73 0 0.0 0.0 0.00 0.00 0.00 87 1011.8
20260906102548 73 0 0.0 0.0 0.00 0.00 0.00 87 1011.8
20260906102041 74 0 0.0 0.0 0.00 0.00 0.00 87 1011.6
20260906101559 74 0 0.0 0.0 0.00 0.00 0.00 87 1011.6
20260906101041 74 0 0.0 0.0 0.00 0.00 0.00 86 1011.5
20260906100547 74 0 0.0 0.0 0.00 0.00 0.00 86 1011.3
20260906100111 74 0 0.0 0.0 0.00 0.00 0.00 86 1011.4
20260906095543 75 0 0.0 1.7 0.00 0.00 0.00 86 1011.3
20260906095042 75 0 0.0 1.7 0.00 0.00 0.00 87 1011.5
20260906094602 74 240 0.9 1.7 0.00 0.00 0.00 88 1011.4
20260906094045 74 0 0.0 0.0 0.00 0.00 0.00 88 1011.5
20260906093542 74 0 0.0 2.6 0.00 0.00 0.00 88 1011.5
20260906093103 74 0 0.0 4.3 0.00 0.00 0.00 88 1011.5
20260906092543 74 193 0.0 4.3 0.00 0.00 0.00 88 1011.4
20260906092041 73 187 1.7 4.3 0.00 0.00 0.00 88 1011.3
20260906091607 73 193 0.9 1.7 0.00 0.00 0.00 88 1011.3
20260906091043 74 195 0.9 2.6 0.00 0.00 0.00 87 1011.3
20260906090543 74 186 0.9 2.6 0.00 0.00 0.00 87 1011.2
20260906090106 74 163 0.9 2.6 0.00 0.00 0.00 87 1011.1
20260906085554 74 178 0.9 5.2 0.00 0.00 0.00 86 1011.2
20260906085044 74 198 0.9 5.2 0.00 0.00 0.00 86 1011.1
20260906084602 75 186 2.6 5.2 0.00 0.00 0.00 86 1011.1
20260906084048 75 184 2.6 6.1 0.00 0.00 0.00 85 1011.2
20260906083545 75 169 3.5 6.1 0.00 0.00 0.00 85 1011.1
20260906083102 75 164 2.6 5.2 0.00 0.00 0.00 85 1011.1
20260906082542 75 182 2.6 5.2 0.00 0.00 0.00 85 1011.1
20260906082044 75 184 2.6 5.2 0.00 0.00 0.00 85 1011.1
20260906081559 75 176 1.7 5.2 0.00 0.00 0.00 85 1011.1
20260906081043 75 213 2.6 5.2 0.00 0.00 0.00 84 1011.0
20260906080542 75 194 1.7 4.3 0.00 0.00 0.00 84 1011.0
20260906080057 76 190 1.7 5.2 0.00 0.00 0.00 84 1011.1
20260906075543 76 174 1.7 6.1 0.00 0.00 0.00 83 1011.2
20260906075045 76 167 2.6 6.1 0.00 0.00 0.00 83 1011.2
20260906074604 76 165 2.6 5.2 0.00 0.00 0.00 83 1011.1
20260906074044 76 179 1.7 4.3 0.00 0.00 0.00 83 1011.3
20260906073544 76 225 2.6 5.2 0.00 0.00 0.00 82 1011.3
20260906073101 76 196 3.5 5.2 0.00 0.00 0.00 82 1011.3
20260906072544 76 186 2.6 5.2 0.00 0.00 0.00 82 1011.3
20260906072043 77 171 2.6 7.8 0.00 0.00 0.00 82 1011.4
20260906071606 77 157 1.7 7.8 0.00 0.00 0.00 81 1011.5
20260906071043 77 158 4.3 7.8 0.00 0.00 0.00 81 1011.4
20260906070542 77 159 2.6 7.0 0.00 0.00 0.00 81 1011.5
20260906070058 77 162 3.5 7.0 0.00 0.00 0.00 80 1011.5
20260906065544 78 149 3.5 7.8 0.00 0.00 0.00 79 1011.5
20260906065043 78 159 4.3 7.8 0.00 0.00 0.00 78 1011.6
20260906064603 78 134 3.5 9.6 0.00 0.00 0.00 78 1011.6
20260906064044 78 154 5.2 9.6 0.00 0.00 0.00 78 1011.6
20260906063544 78 157 4.3 8.7 0.00 0.00 0.00 78 1011.7
20260906063101 78 113 3.5 7.8 0.00 0.00 0.00 79 1011.8
20260906062542 78 136 3.5 7.8 0.00 0.00 0.00 79 1011.8
20260906062042 78 127 3.5 7.8 0.00 0.00 0.00 80 1011.9
20260906061623 78 128 3.5 7.8 0.00 0.00 0.00 80 1011.9
20260906061046 79 132 3.5 7.8 0.00 0.00 0.00 80 1011.9
20260906060542 79 117 3.5 7.0 0.00 0.00 0.00 80 1012.0
20260906060128 79 120 3.5 7.0 0.00 0.00 0.00 80 1012.0
20260906055543 79 116 3.5 7.0 0.00 0.00 0.00 80 1011.9
20260906055044 79 96 2.6 6.1 0.00 0.00 0.00 80 1011.9
20260906054605 79 106 3.5 6.1 0.00 0.00 0.00 80 1011.8
20260906054043 79 103 2.6 6.1 0.00 0.00 0.00 80 1011.9
20260906053543 79 108 0.9 3.5 0.00 0.00 0.00 80 1011.8
20260906053102 79 121 1.7 3.5 0.00 0.00 0.00 80 1011.8
20260906052541 79 74 0.9 3.5 0.00 0.00 0.00 81 1011.9
20260906052044 78 103 1.7 3.5 0.00 0.00 0.00 82 1011.9
20260906051610 77 60 0.0 1.7 0.00 0.00 0.00 84 1012.0
20260906051043 77 0 0.0 0.9 0.00 0.00 0.00 84 1011.9
20260906050547 78 0 0.0 0.9 0.00 0.00 0.00 83 1011.9
20260906050107 79 0 0.0 0.0 0.00 0.00 0.00 80 1011.9
20260906045542 80 0 0.0 1.7 0.00 0.00 0.00 79 1011.8
20260906045044 80 0 0.0 3.5 0.00 0.00 0.00 79 1011.9
20260906044601 80 76 0.9 4.3 0.00 0.00 0.00 80 1012.0
20260906044044 80 76 0.9 4.3 0.00 0.00 0.00 80 1011.9
20260906043543 80 5 1.7 5.2 0.00 0.00 0.00 80 1012.2
20260906043108 80 86 1.7 7.0 0.00 0.00 0.00 80 1012.0
20260906042544 80 27 0.0 7.0 0.00 0.00 0.00 80 1012.1
20260906042043 79 31 0.0 3.5 0.00 0.00 0.00 82 1011.9
20260906041605 79 0 0.0 0.0 0.00 0.00 0.00 82 1011.8
20260906041044 80 0 0.0 0.0 0.00 0.00 0.00 81 1011.9
20260906040543 80 0 0.0 0.0 0.00 0.00 0.00 81 1011.9
20260906040109 80 0 0.0 0.0 0.00 0.00 0.00 81 1012.0
20260906035545 79 0 0.0 0.0 0.00 0.00 0.00 82 1012.0
20260906035044 79 0 0.0 0.9 0.00 0.00 0.00 83 1011.9
20260906034607 78 0 0.0 1.7 0.00 0.00 0.00 83 1012.1
20260906034045 79 196 0.9 1.7 0.00 0.00 0.00 81 1011.9
20260906033542 81 204 0.9 1.7 0.00 0.00 0.00 78 1012.0
20260906033059 82 0 0.0 0.9 0.00 0.00 0.00 76 1012.1
20260906032543 83 0 0.0 2.6 0.00 0.00 0.00 76 1012.1
20260906032043 82 34 0.9 4.3 0.00 0.00 0.00 76 1012.1
20260906031604 82 350 0.0 4.3 0.00 0.00 0.00 78 1012.0
20260906031044 81 0 1.7 4.3 0.00 0.00 0.00 80 1011.9
20260906030542 80 61 0.0 1.7 0.00 0.00 0.00 81 1011.7
20260906030109 80 0 0.0 0.0 0.00 0.00 0.00 83 1011.4
20260906025544 79 0 0.0 0.0 0.00 0.00 0.00 84 1011.1
20260906025043 79 0 0.0 0.0 0.00 0.00 0.00 84 1011.1
20260906024604 80 0 0.0 0.0 0.00 0.00 0.00 83 1011.1
20260906024046 80 0 0.0 0.0 0.00 0.00 0.00 83 1011.1
20260906023544 80 0 0.0 0.0 0.00 0.00 0.00 81 1011.1
20260906023110 82 0 0.0 0.0 0.00 0.00 0.00 76 1011.0
20260906022542 83 0 0.0 0.0 0.00 0.00 0.00 75 1011.0
20260906022044 82 0 0.0 0.0 0.00 0.00 0.00 76 1011.0
20260906021611 82 0 0.0 0.0 0.00 0.00 0.00 77 1010.8
20260906021044 81 0 0.0 0.0 0.00 0.00 0.00 81 1010.7
20260906020544 81 0 0.0 0.0 0.00 0.00 0.00 79 1010.6
20260906020113 82 0 0.0 0.0 0.00 0.00 0.00 78 1010.6
20260906015543 82 0 0.0 0.0 0.00 0.00 0.00 79 1010.6
20260906015041 81 0 0.0 0.0 0.00 0.00 0.00 81 1010.5
20260906014608 81 0 0.0 0.0 0.00 0.00 0.00 83 1010.5
20260906014043 80 0 0.0 0.0 0.00 0.00 0.00 82 1010.6
20260906013543 81 0 0.0 0.0 0.00 0.00 0.00 81 1010.4
20260906013106 81 0 0.0 0.0 0.00 0.00 0.00 80 1010.3
20260906012544 81 0 0.0 0.0 0.00 0.00 0.00 80 1010.3
20260906012042 81 0 0.0 0.0 0.00 0.00 0.00 80 1010.4
20260906011608 83 0 0.0 0.0 0.00 0.00 0.00 75 1010.3
20260906011044 86 0 0.0 0.0 0.00 0.00 0.00 69 1010.2
20260906010544 85 0 0.0 0.0 0.00 0.00 0.00 70 1010.2
20260906010112 85 0 0.0 0.0 0.00 0.00 0.00 72 1010.4
20260906005542 84 0 0.0 0.0 0.00 0.00 0.00 76 1010.4
20260906005047 84 0 0.0 0.0 0.00 0.00 0.00 78 1010.4
20260906004607 84 0 0.0 0.0 0.00 0.00 0.00 77 1010.6
20260906004044 84 0 0.0 0.0 0.00 0.00 0.00 78 1010.6
20260906003544 85 0 0.0 0.0 0.00 0.00 0.00 76 1010.6
20260906003108 86 0 0.0 0.0 0.00 0.00 0.00 72 1010.6
20260906002542 88 0 0.0 0.0 0.00 0.00 0.00 67 1010.6
20260906002043 88 0 0.0 0.0 0.00 0.00 0.00 65 1010.7
20260906001606 88 0 0.0 0.0 0.00 0.00 0.00 66 1010.6
20260906001045 87 0 0.0 0.0 0.00 0.00 0.00 71 1010.6
20260906000544 88 0 0.0 0.0 0.00 0.00 0.00 70 1010.5
20260906000111 89 0 0.0 0.9 0.00 0.00 0.00 67 1010.4
20260905235544 91 0 0.0 1.7 0.00 0.00 0.00 60 1010.5
20260905235045 91 0 0.0 1.7 0.00 0.00 0.00 60 1010.5
20260905234606 91 0 0.0 1.7 0.00 0.00 0.00 59 1010.4
20260905234044 92 234 0.0 2.6 0.00 0.00 0.00 58 1010.5
20260905233542 92 0 0.0 2.6 0.00 0.00 0.00 58 1010.6
20260905233117 92 272 0.9 2.6 0.00 0.00 0.00 57 1010.6
20260905232543 93 221 0.9 3.5 0.00 0.00 0.00 56 1010.6
20260905232043 93 218 1.7 3.5 0.00 0.00 0.00 56 1010.6
20260905231608 93 223 0.9 2.6 0.00 0.00 0.00 55 1010.6
20260905231046 94 238 0.9 1.7 0.00 0.00 0.00 54 1010.5
20260905230544 94 225 0.0 2.6 0.00 0.00 0.00 53 1010.5
20260905230108 94 257 0.0 3.5 0.00 0.00 0.00 52 1010.5
20260905225544 95 267 0.9 3.5 0.00 0.00 0.00 51 1010.5
20260905225044 95 256 1.7 3.5 0.00 0.00 0.00 51 1010.5
20260905224607 95 235 0.9 4.3 0.00 0.00 0.00 51 1010.4
20260905224044 95 235 0.0 4.3 0.00 0.00 0.00 51 1010.6
20260905223543 95 216 0.9 4.3 0.00 0.00 0.00 50 1010.4
20260905223108 95 218 2.6 4.3 0.00 0.00 0.00 48 1010.5
20260905222544 96 211 1.7 4.3 0.00 0.00 0.00 48 1010.4
20260905222043 96 239 1.7 5.2 0.00 0.00 0.00 48 1010.5
20260905221602 96 286 1.7 5.2 0.00 0.00 0.00 49 1010.4
20260905221043 96 263 1.7 6.1 0.00 0.00 0.00 49 1010.6
20260905220544 97 234 3.5 6.1 0.00 0.00 0.00 47 1010.4
20260905220108 97 237 2.6 6.1 0.00 0.00 0.00 49 1010.6
20260905215544 97 325 1.7 5.2 0.00 0.00 0.00 49 1010.5
20260905215043 97 203 3.5 6.1 0.00 0.00 0.00 48 1010.5
20260905214605 97 250 2.6 6.1 0.00 0.00 0.00 47 1010.6
20260905214043 97 251 2.6 6.1 0.00 0.00 0.00 47 1010.5
20260905213544 97 0 0.9 5.2 0.00 0.00 0.00 45 1010.6
20260905213113 97 279 2.6 5.2 0.00 0.00 0.00 46 1010.6
20260905212544 97 33 0.9 5.2 0.00 0.00 0.00 46 1010.7
20260905212043 97 329 2.6 7.0 0.00 0.00 0.00 46 1010.7
20260905211613 97 265 2.6 7.0 0.00 0.00 0.00 48 1010.8
20260905211045 97 296 0.9 5.2 0.00 0.00 0.00 48 1010.8
20260905210544 97 286 0.9 7.8 0.00 0.00 0.00 46 1010.8
20260905210114 97 246 3.5 7.8 0.00 0.00 0.00 48 1010.9
20260905205543 97 252 2.6 6.1 0.00 0.00 0.00 48 1010.9
20260905205044 97 221 2.6 5.2 0.00 0.00 0.00 47 1010.9
20260905204606 97 302 1.7 5.2 0.00 0.00 0.00 48 1011.0
20260905204044 97 238 1.7 7.0 0.00 0.00 0.00 48 1011.0
20260905203544 97 0 2.6 7.0 0.00 0.00 0.00 49 1011.1
20260905203107 97 232 1.7 8.7 0.00 0.00 0.00 51 1011.1
20260905202545 96 294 4.3 8.7 0.00 0.00 0.00 50 1011.3
20260905202042 96 0 0.9 3.5 0.00 0.00 0.00 48 1011.5
20260905201600 96 279 0.9 7.0 0.00 0.00 0.00 50 1011.5
20260905201043 96 340 1.7 7.0 0.00 0.00 0.00 50 1011.6
20260905200547 97 252 2.6 7.0 0.00 0.00 0.00 47 1011.7
20260905195543 97 317 0.9 3.5 0.00 0.00 0.00 51 1011.8
20260905195044 97 186 0.9 3.5 0.00 0.00 0.00 47 1011.7
20260905194607 96 257 0.9 3.5 0.00 0.00 0.00 48 1011.7
20260905194044 95 0 0.0 3.5 0.00 0.00 0.00 51 1011.8
20260905193543 95 282 0.9 3.5 0.00 0.00 0.00 50 1011.9
20260905193100 96 254 1.7 7.0 0.00 0.00 0.00 49 1012.0
20260905192543 96 0 2.6 7.0 0.00 0.00 0.00 49 1012.0
20260905192042 96 279 1.7 6.1 0.00 0.00 0.00 54 1012.1
20260905191559 96 269 2.6 5.2 0.00 0.00 0.00 50 1012.1
20260905191043 95 277 0.9 6.1 0.00 0.00 0.00 51 1012.2
20260905190546 96 194 1.7 6.1 0.00 0.00 0.00 52 1012.2
20260905190104 95 296 0.9 4.3 0.00 0.00 0.00 52 1012.2
20260905185544 95 17 1.7 3.5 0.00 0.00 0.00 51 1012.3
20260905185042 95 19 0.9 1.7 0.00 0.00 0.00 51 1012.3
20260905184611 96 0 0.0 1.7 0.00 0.00 0.00 50 1012.4
20260905184041 96 0 0.0 1.7 0.00 0.00 0.00 50 1012.5
20260905183544 95 279 0.0 3.5 0.00 0.00 0.00 50 1012.5
20260905183119 94 312 1.7 7.8 0.00 0.00 0.00 58 1012.7
20260905182543 94 314 2.6 7.8 0.00 0.00 0.00 52 1012.8
20260905182044 95 301 4.3 7.8 0.00 0.00 0.00 52 1012.9
20260905181606 94 321 1.7 5.2 0.00 0.00 0.00 52 1013.0
20260905181043 94 295 2.6 7.8 0.00 0.00 0.00 56 1013.0
20260905180543 95 190 3.5 7.8 0.00 0.00 0.00 51 1013.3
20260905180108 96 292 1.7 4.3 0.00 0.00 0.00 54 1013.3
20260905175547 96 189 0.9 3.5 0.00 0.00 0.00 54 1013.3
20260905175046 95 0 0.0 3.5 0.00 0.00 0.00 51 1013.4
20260905174602 94 0 0.9 3.5 0.00 0.00 0.00 54 1013.4
20260905174045 94 0 0.9 7.0 0.00 0.00 0.00 53 1013.4
20260905173544 95 71 2.6 7.0 0.00 0.00 0.00 50 1013.4
20260905173059 95 94 1.7 4.3 0.00 0.00 0.00 51 1013.5
20260905172544 95 64 1.7 3.5 0.00 0.00 0.00 51 1013.5
20260905172043 95 313 0.9 4.3 0.00 0.00 0.00 50 1013.6
20260905171559 94 0 1.7 5.2 0.00 0.00 0.00 49 1013.6
20260905171044 95 312 2.6 5.2 0.00 0.00 0.00 53 1013.6
20260905170544 94 324 0.9 7.0 0.00 0.00 0.00 53 1013.7
20260905170104 94 49 2.6 7.0 0.00 0.00 0.00 55 1013.8
20260905165542 94 269 1.7 5.2 0.00 0.00 0.00 55 1013.7
20260905165044 94 218 0.9 4.3 0.00 0.00 0.00 54 1013.9
20260905164609 94 342 2.6 4.3 0.00 0.00 0.00 54 1013.9
20260905164043 93 63 1.7 6.1 0.00 0.00 0.00 55 1014.0
20260905163548 93 317 2.6 6.1 0.00 0.00 0.00 54 1014.0
20260905163107 93 283 1.7 6.1 0.00 0.00 0.00 55 1014.0
20260905162545 93 21 0.9 3.5 0.00 0.00 0.00 55 1014.1
20260905162044 93 349 0.9 3.5 0.00 0.00 0.00 57 1014.1
20260905161600 93 29 0.9 3.5 0.00 0.00 0.00 56 1014.2
20260905161044 92 22 1.7 6.1 0.00 0.00 0.00 57 1014.1
20260905160544 92 310 2.6 6.1 0.00 0.00 0.00 62 1014.2
20260905160105 92 34 0.9 6.1 0.00 0.00 0.00 59 1014.2
20260905155541 92 296 0.9 6.1 0.00 0.00 0.00 61 1014.1
20260905155043 92 306 2.6 7.8 0.00 0.00 0.00 61 1014.2
20260905154606 92 298 1.7 7.8 0.00 0.00 0.00 61 1014.2
20260905154042 92 360 4.3 7.8 0.00 0.00 0.00 61 1014.2
20260905153544 91 305 1.7 5.2 0.00 0.00 0.00 60 1014.3
20260905153110 91 301 1.7 6.1 0.00 0.00 0.00 63 1014.4
20260905152543 91 319 2.6 6.1 0.00 0.00 0.00 62 1014.5
20260905152044 91 329 3.5 6.1 0.00 0.00 0.00 61 1014.4
20260905151611 91 313 1.7 3.5 0.00 0.00 0.00 62 1014.4
20260905151044 90 9 0.9 5.2 0.00 0.00 0.00 67 1014.5
20260905150543 89 281 1.7 5.2 0.00 0.00 0.00 64 1014.5
20260905150100 89 307 2.6 5.2 0.00 0.00 0.00 66 1014.5
20260905145544 89 269 2.6 4.3 0.00 0.00 0.00 65 1014.5
20260905145042 89 299 2.6 4.3 0.00 0.00 0.00 68 1014.5
20260905144558 88 297 2.6 4.3 0.00 0.00 0.00 65 1014.5
20260905144043 88 345 3.5 4.3 0.00 0.00 0.00 66 1014.5
20260905143544 88 314 2.6 4.3 0.00 0.00 0.00 66 1014.5
20260905143102 88 291 0.9 4.3 0.00 0.00 0.00 70 1014.5
20260905142542 87 337 1.7 3.5 0.00 0.00 0.00 68 1014.6
20260905142044 87 325 0.0 2.6 0.00 0.00 0.00 72 1014.5
20260905141607 86 320 0.9 3.5 0.00 0.00 0.00 73 1014.5
20260905141047 86 329 0.9 3.5 0.00 0.00 0.00 73 1014.5
20260905140542 86 293 0.9 3.5 0.00 0.00 0.00 74 1014.5
20260905140109 85 306 1.7 3.5 0.00 0.00 0.00 73 1014.5
20260905135542 85 289 1.7 3.5 0.00 0.00 0.00 76 1014.6
20260905135042 84 287 0.0 2.6 0.00 0.00 0.00 78 1014.5
20260905134604 84 288 0.0 2.6 0.00 0.00 0.00 78 1014.6
20260905134043 83 0 0.0 0.0 0.00 0.00 0.00 82 1014.6
20260905133543 82 0 0.0 0.0 0.00 0.00 0.00 84 1014.5
20260905133100 81 0 0.0 0.0 0.00 0.00 0.00 84 1014.6
20260905132542 80 0 0.0 0.0 0.00 0.00 0.00 86 1014.6
20260905132045 80 0 0.0 0.0 0.00 0.00 0.00 85 1014.5
20260905131617 80 0 0.0 0.0 0.00 0.00 0.00 86 1014.5
20260905131042 79 0 0.0 1.7 0.00 0.00 0.00 87 1014.5
20260905130545 78 0 0.0 1.7 0.00 0.00 0.00 88 1014.4
20260905130058 77 0 0.0 1.7 0.00 0.00 0.00 89 1014.4
20260905125542 77 0 0.0 1.7 0.00 0.00 0.00 90 1014.5
20260905125042 76 0 0.0 0.0 0.00 0.00 0.00 91 1014.5
20260905124608 75 0 0.0 0.0 0.00 0.00 0.00 91 1014.5
20260905124042 75 0 0.0 0.0 0.00 0.00 0.00 91 1014.4
20260905123539 74 0 0.0 0.0 0.00 0.00 0.00 91 1014.5
20260905123110 74 0 0.0 0.0 0.00 0.00 0.00 91 1014.4
20260905122540 73 0 0.0 0.9 0.00 0.00 0.00 92 1014.4